星链-4446 (STARLINK-4446 )

导读 | 星芒AI

STARLINK-4446 是 SpaceX 星链计划中的一颗低轨通信卫星,属于星链第三代(v1.5)卫星系列。该卫星于2023年发射,运行在约550公里高度的近地轨道,旨在为全球用户提供高速互联网服务。它采用先进的推进系统和激光通信技术,提升网络稳定性和数据传输效率。作为星链星座的重要组成部分,STARLINK-4446 支持偏远地区的宽带接入,助力实现全球互联网覆盖目标。

基本信息
目录编号:
53505
目录名称:
STARLINK-4446
国际标识:
2022-099AS
轨道中心:
EARTH
卫星名称:
星链-4446
卫星全名:
星链-4446 (STARLINK-4446 )
卫星状态:
在轨 (已飞行1227 天)
发射日期:
2022-08-12 UTC
国别 :
美国 (US)
星等 :
--
轨道信息
数据来源 国际轨道数据
星历时间: 2025-12-21T05:12:12+0800
9小时前
查看轨道信息
半长轴: 6941.144km
偏心率: 0.0001314
轨道倾角: 97.604°
近地点辐角 92.121°
升交点赤经 113.068°
平近点角 268.017°
近地点: 562.094km
远地点: 563.92km
周期: 95.919分钟
每日圈数: 15.01261
详细信息
固有亮度:
5
最大亮度:
2.5
卫星平台:
Starlink v1.5
覆盖范围:
全球
运营商:
太空探索技术公司
运营商所在国:
美国
制造商(研发单位):
太空探索技术公司
制造商所在国:
美国
使用方式:
暂无
卫星简介
星链(Starlink)计划是由太空探索技术公司(SpaceX)提出的一个巨型低轨卫星互联网星座项目,计划在2019年至2024年间在太空搭建由约1.2万颗卫星组成的“星链”网络,其中1584颗将部署在地球上空550千米处的近地轨道,并从2020年开始工作。该卫星仍在工作。
2D轨道图
3D轨道图
轨道高度分析图
轨道倾角分析图
轨道综合分析图
查看轨道综合分析图